Time,TemperatureF,DewpointF,PressureIn,WindDirection,WindDirectionDegrees,WindSpeedMPH,WindSpeedGustMPH,Humidity,HourlyPrecipIn,Conditions,Clouds,dailyrainin,SoftwareType,DateUTC
2013-05-17 08:53:00,63.0,-99.9,-100.00,ENE,76,3.0,-999.0,-999,-99.99,,,0.00,,2013-05-17 12:53:00,
2013-05-17 09:04:00,63.0,-99.9,-100.00,ENE,76,3.0,-999.0,-999,-99.99,,,0.00,,2013-05-17 13:04:00,
2013-05-17 09:12:00,63.0,-99.9,-100.00,ENE,76,3.0,-999.0,-999,-99.99,,,0.00,,2013-05-17 13:12:00,
2013-05-17 09:23:00,64.0,-99.9,-100.00,East,87,3.0,-999.0,-999,-99.99,,,0.00,,2013-05-17 13:23:00,
2013-05-17 09:33:00,64.0,-99.9,-100.00,East,87,3.0,-999.0,-999,-99.99,,,0.00,,2013-05-17 13:33:00,
2013-05-17 09:42:00,64.0,-99.9,-100.00,East,87,3.0,-999.0,-999,-99.99,,,0.00,,2013-05-17 13:42:00,
2013-05-17 09:52:00,64.0,-99.9,-100.00,ENE,72,2.0,-999.0,-999,-99.99,,,0.00,,2013-05-17 13:52:00,
2013-05-17 10:02:00,64.0,-99.9,-100.00,ENE,72,2.0,-999.0,-999,-99.99,,,0.00,,2013-05-17 14:02:00,
2013-05-17 10:13:00,64.0,-99.9,-100.00,ENE,72,2.0,-999.0,-999,-99.99,,,0.00,,2013-05-17 14:13:00,
2013-05-17 10:22:00,64.0,-99.9,-100.00,East,79,3.0,-999.0,-999,-99.99,,,0.00,,2013-05-17 14:22:00,
2013-05-17 10:34:00,64.0,-99.9,-100.00,East,79,3.0,-999.0,-999,-99.99,,,0.00,,2013-05-17 14:34:00,
2013-05-17 10:43:00,64.0,-99.9,-100.00,East,79,3.0,-999.0,-999,-99.99,,,0.00,,2013-05-17 14:43:00,
2013-05-17 10:45:00,67.0,-99.9,-100.00,ENE,76,4.0,-999.0,-999,-99.99,,,0.00,,2013-05-17 14:45:00,
2013-05-17 10:53:00,66.0,-99.9,-100.00,SSW,206,1.0,-999.0,-999,-99.99,,,-99.99,,2013-05-17 14:53:00,
2013-05-17 11:03:00,66.0,-99.9,-100.00,SSW,206,1.0,-999.0,-999,-99.99,,,-99.99,,2013-05-17 15:03:00,
2013-05-17 11:14:00,66.0,-99.9,-100.00,SSW,206,1.0,-999.0,-999,-99.99,,,-99.99,,2013-05-17 15:14:00,
2013-05-17 11:25:00,67.0,-99.9,-100.00,ENE,76,4.0,-999.0,-999,-99.99,,,0.00,,2013-05-17 15:25:00,
2013-05-17 11:38:00,67.0,-99.9,-100.00,ENE,76,4.0,-999.0,-999,-99.99,,,0.00,,2013-05-17 15:38:00,
2013-05-17 11:57:00,68.0,-99.9,-100.00,ENE,66,1.0,-999.0,-999,-99.99,,,-99.99,,2013-05-17 15:57:00,
2013-05-17 12:08:00,68.0,-99.9,-100.00,ENE,66,1.0,-999.0,-999,-99.99,,,-99.99,,2013-05-17 16:08:00,
2013-05-17 12:14:00,68.0,-99.9,-100.00,ENE,66,1.0,-999.0,-999,-99.99,,,-99.99,,2013-05-17 16:14:00,
2013-05-17 12:26:00,70.0,-99.9,-100.00,SW,231,2.0,-999.0,-999,-99.99,,,-99.99,,2013-05-17 16:26:00,
2013-05-17 12:37:00,70.0,-99.9,-100.00,SW,231,2.0,-999.0,-999,-99.99,,,-99.99,,2013-05-17 16:37:00,
2013-05-17 12:50:00,70.0,-99.9,-100.00,SW,231,2.0,-999.0,-999,-99.99,,,-99.99,,2013-05-17 16:50:00,
2013-05-17 12:57:00,71.0,-99.9,-100.00,WSW,251,2.0,-999.0,-999,-99.99,,,-99.99,,2013-05-17 16:57:00,
2013-05-17 13:08:00,71.0,-99.9,-100.00,WSW,251,2.0,-999.0,-999,-99.99,,,-99.99,,2013-05-17 17:08:00,
2013-05-17 13:19:00,72.0,-99.9,-100.00,SW,235,3.0,-999.0,-999,-99.99,,,-99.99,,2013-05-17 17:19:00,
2013-05-17 13:30:00,72.0,-99.9,-100.00,West,259,3.0,-999.0,-999,-99.99,,,-99.99,,2013-05-17 17:30:00,
2013-05-17 13:41:00,72.0,-99.9,-100.00,West,259,3.0,-999.0,-999,-99.99,,,-99.99,,2013-05-17 17:41:00,
2013-05-17 13:49:00,73.0,-99.9,-100.00,WSW,253,4.0,-999.0,-999,-99.99,,,-99.99,,2013-05-17 17:49:00,
2013-05-17 14:01:00,74.0,-99.9,-100.00,WSW,248,4.0,-999.0,-999,-99.99,,,-99.99,,2013-05-17 18:01:00,
2013-05-17 14:09:00,74.0,-99.9,-100.00,WSW,248,4.0,-999.0,-999,-99.99,,,-99.99,,2013-05-17 18:09:00,
2013-05-17 14:20:00,74.0,-99.9,-100.00,SW,230,3.0,-999.0,-999,-99.99,,,-99.99,,2013-05-17 18:20:00,
2013-05-17 14:30:00,75.0,-99.9,-100.00,WSW,247,2.0,-999.0,-999,-99.99,,,-99.99,,2013-05-17 18:30:00,
2013-05-17 14:41:00,75.0,-99.9,-100.00,WSW,247,2.0,-999.0,-999,-99.99,,,-99.99,,2013-05-17 18:41:00,
2013-05-17 14:51:00,-999.0,-99.9,-100.00,SW,236,4.0,-999.0,-999,-99.99,,,-99.99,,2013-05-17 18:51:00,
2013-05-17 15:01:00,76.0,-99.9,-100.00,WSW,257,3.0,-999.0,-999,-99.99,,,-99.99,,2013-05-17 19:01:00,
2013-05-17 15:11:00,76.0,-99.9,-100.00,WSW,257,3.0,-999.0,-999,-99.99,,,-99.99,,2013-05-17 19:11:00,
2013-05-17 15:20:00,76.0,-99.9,-100.00,SW,214,4.0,-999.0,-999,-99.99,,,-99.99,,2013-05-17 19:20:00,
2013-05-17 15:31:00,76.0,-99.9,-100.00,WSW,237,3.0,-999.0,-999,-99.99,,,-99.99,,2013-05-17 19:31:00,
2013-05-17 15:41:00,76.0,-99.9,-100.00,WSW,237,3.0,-999.0,-999,-99.99,,,-99.99,,2013-05-17 19:41:00,
2013-05-17 15:51:00,77.0,-99.9,-100.00,South,182,2.0,-999.0,-999,-99.99,,,-99.99,,2013-05-17 19:51:00,
2013-05-17 16:01:00,-999.0,-99.9,-100.00,South,176,3.0,-999.0,-999,-99.99,,,-99.99,,2013-05-17 20:01:00,
2013-05-17 16:10:00,77.0,-99.9,-100.00,South,176,3.0,-999.0,-999,-99.99,,,-99.99,,2013-05-17 20:10:00,
2013-05-17 16:20:00,77.0,-99.9,-100.00,WSW,256,2.0,-999.0,-999,-99.99,,,-99.99,,2013-05-17 20:20:00,
2013-05-17 16:30:00,78.0,-99.9,-100.00,West,269,3.0,-999.0,-999,-99.99,,,-99.99,,2013-05-17 20:30:00,
2013-05-17 16:41:00,78.0,-99.9,-100.00,West,269,3.0,-999.0,-999,-99.99,,,-99.99,,2013-05-17 20:41:00,
2013-05-17 16:50:00,78.0,-99.9,-100.00,West,266,3.0,-999.0,-999,-99.99,,,-99.99,,2013-05-17 20:50:00,
2013-05-17 16:58:00,77.0,-99.9,-100.00,West,260,3.0,-999.0,-999,-99.99,,,-99.99,,2013-05-17 20:58:00,
2013-05-17 17:07:00,77.0,-99.9,-100.00,West,260,3.0,-999.0,-999,-99.99,,,-99.99,,2013-05-17 21:07:00,
2013-05-17 17:17:00,77.0,-99.9,-100.00,West,270,3.0,-999.0,-999,-99.99,,,-99.99,,2013-05-17 21:17:00,
2013-05-17 17:26:00,77.0,-99.9,-100.00,WSW,256,3.0,-999.0,-999,-99.99,,,-99.99,,2013-05-17 21:26:00,
2013-05-17 17:39:00,77.0,-99.9,-100.00,WSW,256,3.0,-999.0,-999,-99.99,,,-99.99,,2013-05-17 21:39:00,
2013-05-17 17:49:00,77.0,-99.9,-100.00,SW,232,2.0,-999.0,-999,-99.99,,,-99.99,,2013-05-17 21:49:00,
2013-05-17 17:58:00,77.0,-99.9,-100.00,SW,227,2.0,-999.0,-999,-99.99,,,-99.99,,2013-05-17 21:58:00,
2013-05-17 18:07:00,77.0,-99.9,-100.00,SW,227,2.0,-999.0,-999,-99.99,,,-99.99,,2013-05-17 22:07:00,
2013-05-17 18:17:00,77.0,-99.9,-100.00,SW,232,3.0,-999.0,-999,-99.99,,,-99.99,,2013-05-17 22:17:00,
2013-05-17 18:28:00,77.0,-99.9,-100.00,SW,219,3.0,-999.0,-999,-99.99,,,-99.99,,2013-05-17 22:28:00,
2013-05-17 18:38:00,77.0,-99.9,-100.00,SW,219,3.0,-999.0,-999,-99.99,,,-99.99,,2013-05-17 22:38:00,
2013-05-17 18:47:00,77.0,-99.9,-100.00,SW,214,2.0,-999.0,-999,-99.99,,,-99.99,,2013-05-17 22:47:00,
2013-05-17 18:55:00,76.0,-99.9,-100.00,SW,221,2.0,-999.0,-999,-99.99,,,-99.99,,2013-05-17 22:55:00,
2013-05-17 19:05:00,76.0,-99.9,-100.00,SW,221,2.0,-999.0,-999,-99.99,,,-99.99,,2013-05-17 23:05:00,
2013-05-17 19:13:00,76.0,-99.9,-100.00,SW,218,2.0,-999.0,-999,-99.99,,,-99.99,,2013-05-17 23:13:00,
2013-05-17 19:23:00,76.0,-99.9,-100.00,SSW,211,2.0,-999.0,-999,-99.99,,,-99.99,,2013-05-17 23:23:00,
2013-05-17 19:38:00,76.0,-99.9,-100.00,SSW,211,2.0,-999.0,-999,-99.99,,,-99.99,,2013-05-17 23:38:00,
2013-05-17 19:47:00,75.0,-99.9,-100.00,WSW,246,2.0,-999.0,-999,-99.99,,,-99.99,,2013-05-17 23:47:00,
2013-05-17 19:54:00,74.0,-99.9,-100.00,SW,232,1.0,-999.0,-999,-99.99,,,-99.99,,2013-05-17 23:54:00,
2013-05-17 20:02:00,74.0,-99.9,-100.00,SW,232,1.0,-999.0,-999,-99.99,,,-99.99,,2013-05-18 00:02:00,
2013-05-17 20:14:00,73.0,-99.9,-100.00,West,262,1.0,-999.0,-999,-99.99,,,-99.99,,2013-05-18 00:14:00,
2013-05-17 20:22:00,73.0,-99.9,-100.00,WSW,253,2.0,-999.0,-999,-99.99,,,-99.99,,2013-05-18 00:22:00,
2013-05-17 20:34:00,73.0,-99.9,-100.00,WSW,253,2.0,-999.0,-999,-99.99,,,-99.99,,2013-05-18 00:34:00,
2013-05-17 20:45:00,72.0,-99.9,-100.00,SSW,205,1.0,-999.0,-999,-99.99,,,-99.99,,2013-05-18 00:45:00,
2013-05-17 20:54:00,72.0,-99.9,-100.00,SSW,205,1.0,-999.0,-999,-99.99,,,-99.99,,2013-05-18 00:54:00,
2013-05-17 21:03:00,72.0,-99.9,-100.00,SSW,192,1.0,-999.0,-999,-99.99,,,-99.99,,2013-05-18 01:03:00,
2013-05-17 21:14:00,72.0,-99.9,-100.00,SSW,192,1.0,-999.0,-999,-99.99,,,-99.99,,2013-05-18 01:14:00,
2013-05-17 21:24:00,71.0,-99.9,-100.00,West,267,1.0,-999.0,-999,-99.99,,,-99.99,,2013-05-18 01:24:00,
2013-05-17 21:32:00,71.0,-99.9,-100.00,West,267,1.0,-999.0,-999,-99.99,,,-99.99,,2013-05-18 01:32:00,
2013-05-17 21:43:00,71.0,-99.9,-100.00,SW,223,1.0,-999.0,-999,-99.99,,,-99.99,,2013-05-18 01:43:00,
2013-05-17 21:52:00,71.0,-99.9,-100.00,SW,217,1.0,-999.0,-999,-99.99,,,-99.99,,2013-05-18 01:52:00,
2013-05-17 22:03:00,71.0,-99.9,-100.00,SW,217,1.0,-999.0,-999,-99.99,,,-99.99,,2013-05-18 02:03:00,
2013-05-17 22:12:00,71.0,-99.9,-100.00,SW,214,2.0,-999.0,-999,-99.99,,,-99.99,,2013-05-18 02:12:00,
2013-05-17 22:23:00,71.0,-99.9,-100.00,SSW,196,3.0,-999.0,-999,-99.99,,,-99.99,,2013-05-18 02:23:00,
2013-05-17 22:32:00,71.0,-99.9,-100.00,SSW,196,3.0,-999.0,-999,-99.99,,,-99.99,,2013-05-18 02:32:00,
2013-05-17 22:43:00,71.0,-99.9,-100.00,SSW,193,3.0,-999.0,-999,-99.99,,,-99.99,,2013-05-18 02:43:00,
2013-05-17 22:54:00,71.0,-99.9,-100.00,SSW,195,3.0,-999.0,-999,-99.99,,,-99.99,,2013-05-18 02:54:00,
2013-05-17 23:03:00,71.0,-99.9,-100.00,SSW,195,3.0,-999.0,-999,-99.99,,,-99.99,,2013-05-18 03:03:00,
2013-05-17 23:12:00,71.0,-99.9,-100.00,SSW,205,3.0,-999.0,-999,-99.99,,,-99.99,,2013-05-18 03:12:00,
2013-05-17 23:23:00,70.0,-99.9,-100.00,SSW,211,3.0,-999.0,-999,-99.99,,,-99.99,,2013-05-18 03:23:00,
2013-05-17 23:33:00,70.0,-99.9,-100.00,SSW,211,3.0,-999.0,-999,-99.99,,,-99.99,,2013-05-18 03:33:00,
2013-05-17 23:43:00,69.0,-99.9,-100.00,SW,231,3.0,-999.0,-999,-99.99,,,-99.99,,2013-05-18 03:43:00,
2013-05-17 23:53:00,68.0,-99.9,-100.00,SW,221,2.0,-999.0,-999,-99.99,,,-99.99,,2013-05-18 03:53:00,